Location: Unspecified
(48.8656°N, 0.0000°E)
Time: 14:08:01
(UTC+00:00)

Vanguard 1 - Pass Details

Date: 25 June 2019
Orbit: 653 x 3830 km, 34.3° (Epoch: 22 July)

Event Time Altitude Azimuth Distance (km) Brightness Sun altitude
Rises 06:53:16 0° 269° (W) 6,093 13.5 25.6°
Reaches altitude 10° 06:59:06 10° 257° (WSW) 4,437 12.9 26.5°
Maximum altitude 07:06:28 20° 215° (SW) 2,822 12.2 27.7°
Drops below altitude 10° 07:11:38 10° 170° (S) 2,950 12.7 28.6°
Sets 07:14:33 0° 152° (SSE) 3,584 13.3 29.0°
